Location: Sungai Jaoh
(2.9167°N, 113.9167°E)
Time: 15:50:13
(UTC+00:00)

USA 234 - Pass Details

Date: 30 November 2020
Orbit: 1098 x 1110 km, 123.0° (Epoch: 22 January)

Event Time Altitude Azimuth Distance (km) Brightness Sun altitude
Rises 21:24:08 0° 21° (NNE) 3,916 6.2 -12.5°
Reaches altitude 10° 21:26:47 10° 13° (NNE) 2,959 5.4 -11.9°
Maximum altitude 21:32:44 39° 308° (NW) 1,607 3.7 -10.5°
Drops below altitude 10° 21:38:42 10° 241° (WSW) 2,958 5.2 -9.1°
Sets 21:41:22 0° 234° (SW) 3,916 5.8 -8.5°
